Rockwall, TX

1:34 PM CDT on October 22, 2017 (GMT -0500)
Rockwall

Weather History for KF46 - May, 2013

Change the Weather History Date:

Thursday, May 16, 2013

  Actual Average (KDFW) Record (KDFW)
Temperature  
Mean Temperature 71 °F -  
Max Temperature 80 °F 81 °F 94 °F (2003)
Min Temperature 62 °F 62 °F 46 °F (1945)
Cooling Degree Days 6    
Growing Degree Days 21 (Base 50)    
Moisture  
Dew Point 66 °F    
Average Humidity 88    
Maximum Humidity 99    
Minimum Humidity 71    
Precipitation  
Precipitation 0.06 in - - ()
Sea Level Pressure  
Sea Level Pressure 29.80 in    
Wind  
Wind Speed 10 mph (SSE)    
Max Wind Speed 21 mph    
Max Gust Speed 30 mph    
Visibility 10 miles    
Events Rain , Thunderstorm    
Averages and records for this station are not official NWS values.
T = Trace of Precipitation, MM = Missing Value Source: NWS Daily Summary

Daily Weather History Graph

Daily Weather History Graph

Search for Another Location

Airport or City:

Trip Planner

Search our weather history database for the weather conditions in past years. The results will help you decide how hot, cold, wet, or windy it might be!

Date:

Astronomy

May. 16, 2013 Rise Set
Actual Time 6:25 AM CDT 8:18 PM CDT
Civil Twilight 5:58 AM CDT 8:46 PM CDT
Nautical Twilight 5:25 AM CDT 9:19 PM CDT
Astronomical Twilight 4:50 AM CDT 9:54 PM CDT
Moon 11:54 AM CDT (5/16) 12:45 AM CDT (5/16)
Length of Visible Light 14h 47m
Length of Day
13h 53m
Waxing Crescent, 36% of the Moon is Illuminated
May 16
Waxing Crescent
May 17
First Quarter
May 24
Full
May 31
Last Quarter
Jun 8
New

Hourly Weather History & Observations

Time (CDT) Temp. Heat Index Dew Point Humidity Pressure Visibility Wind Dir Wind Speed Gust Speed Precip Events Conditions
12:15 AM 62.6 °F - 61.7 °F 97% 29.85 in 10.0 mi East 4.6 mph - 0.03 in Rain , Thunderstorm Light Thunderstorms and Rain
12:35 AM 62.6 °F - 61.7 °F 97% 29.86 in 10.0 mi ESE 11.5 mph 17.3 mph 0.05 in Rain , Thunderstorm Light Thunderstorms and Rain
12:55 AM 62.1 °F - 61.7 °F 99% 29.83 in 10.0 mi East 16.1 mph 23.0 mph 0.05 in Rain , Thunderstorm Light Thunderstorms and Rain
1:15 AM 62.1 °F - 61.2 °F 97% 29.81 in 10.0 mi SE 6.9 mph - 0.01 in Rain Light Rain
1:35 AM 62.4 °F - 61.2 °F 96% 29.82 in 10.0 mi East 10.4 mph - 0.01 in Thunderstorm Scattered Clouds
1:55 AM 62.6 °F - 61.3 °F 96% 29.81 in 10.0 mi East 11.5 mph - 0.01 in   Clear
2:15 AM 62.6 °F - 61.2 °F 95% 29.80 in 10.0 mi East 10.4 mph - N/A   Clear
2:35 AM 62.6 °F - 61.2 °F 95% 29.78 in 10.0 mi SE 10.4 mph 17.3 mph N/A Thunderstorm Clear
2:55 AM 62.6 °F - 61.3 °F 96% 29.77 in 10.0 mi SE 9.2 mph - N/A   Clear
3:15 AM 62.8 °F - 61.5 °F 96% 29.79 in 10.0 mi SSE 6.9 mph 18.4 mph N/A   Clear
3:35 AM 62.6 °F - 61.5 °F 96% 29.79 in 10.0 mi South 13.8 mph 20.7 mph N/A   Clear
3:55 AM 62.4 °F - 61.5 °F 97% 29.78 in 10.0 mi South 9.2 mph 19.6 mph N/A   Scattered Clouds
4:15 AM 62.4 °F - 61.2 °F 96% 29.78 in 10.0 mi South 10.4 mph 18.4 mph N/A   Mostly Cloudy
4:35 AM 62.4 °F - 61.2 °F 96% 29.78 in 10.0 mi SSE 8.1 mph - N/A   Overcast
4:55 AM 62.2 °F - 61.3 °F 97% 29.79 in 10.0 mi SSE 6.9 mph - N/A   Overcast
5:15 AM 62.2 °F - 61.5 °F 97% 29.79 in 10.0 mi SSE 9.2 mph - N/A   Overcast
5:35 AM 62.6 °F - 61.7 °F 97% 29.79 in 10.0 mi South 6.9 mph - N/A   Overcast
5:55 AM 62.6 °F - 61.7 °F 97% 29.80 in 10.0 mi South 9.2 mph 17.3 mph N/A   Overcast
6:15 AM 62.6 °F - 61.3 °F 96% 29.81 in 10.0 mi SSW 15.0 mph 19.6 mph N/A   Mostly Cloudy
6:35 AM 62.6 °F - 61.3 °F 96% 29.80 in 10.0 mi South 15.0 mph 21.9 mph N/A   Scattered Clouds
6:55 AM 62.4 °F - 61.2 °F 96% 29.79 in 10.0 mi South 10.4 mph 17.3 mph N/A   Scattered Clouds
7:15 AM 62.6 °F - 61.3 °F 96% 29.80 in 10.0 mi SSE 9.2 mph - N/A   Scattered Clouds
7:35 AM 62.6 °F - 61.5 °F 96% 29.82 in 10.0 mi SSE 4.6 mph - N/A   Mostly Cloudy
7:55 AM 63.0 °F - 61.7 °F 96% 29.82 in 10.0 mi SSE 9.2 mph - N/A   Mostly Cloudy
8:15 AM 63.9 °F - 62.1 °F 94% 29.82 in 10.0 mi SSE 6.9 mph - N/A   Mostly Cloudy
8:55 AM 65.3 °F - 63.0 °F 92% 29.81 in 10.0 mi SSE 10.4 mph - N/A   Overcast
9:15 AM 66.0 °F - 63.1 °F 90% 29.81 in 10.0 mi SSE 10.4 mph - N/A   Overcast
9:35 AM 66.9 °F - 63.5 °F 89% 29.81 in 10.0 mi SSE 10.4 mph - N/A   Overcast
9:55 AM 67.5 °F - 63.9 °F 88% 29.82 in 10.0 mi South 8.1 mph - N/A   Overcast
10:15 AM 67.5 °F - 63.9 °F 88% 29.83 in 10.0 mi South 10.4 mph 16.1 mph N/A Thunderstorm Overcast
10:35 AM 68.2 °F - 64.6 °F 88% 29.83 in 10.0 mi South 10.4 mph - N/A   Overcast
10:55 AM 68.5 °F - 64.6 °F 87% 29.84 in 10.0 mi South 9.2 mph - N/A   Overcast
11:15 AM 69.1 °F - 65.1 °F 87% 29.83 in 10.0 mi South 10.4 mph - N/A   Overcast
11:35 AM 69.1 °F - 65.3 °F 88% 29.84 in 10.0 mi South 8.1 mph - N/A   Overcast
11:55 AM 69.3 °F - 65.5 °F 88% 29.84 in 10.0 mi South 9.2 mph - N/A   Overcast
12:15 PM 69.8 °F - 65.7 °F 87% 29.84 in 10.0 mi South 10.4 mph - N/A   Overcast
12:35 PM 70.2 °F - 66.4 °F 88% 29.83 in 10.0 mi South 11.5 mph - N/A   Overcast
12:55 PM 71.6 °F - 67.1 °F 86% 29.82 in 10.0 mi South 16.1 mph 19.6 mph N/A   Overcast
1:15 PM 73.8 °F - 68.2 °F 83% 29.80 in 10.0 mi South 16.1 mph - N/A   Mostly Cloudy
1:35 PM 75.4 °F - 68.9 °F 80% 29.80 in 10.0 mi South 18.4 mph 24.2 mph N/A   Mostly Cloudy
1:55 PM 75.6 °F - 68.2 °F 78% 29.80 in 10.0 mi South 20.7 mph 29.9 mph N/A   Overcast
2:15 PM 76.1 °F - 68.4 °F 77% 29.79 in 10.0 mi South 19.6 mph 26.5 mph N/A   Overcast
2:35 PM 77.2 °F - 68.7 °F 75% 29.79 in 10.0 mi South 17.3 mph 24.2 mph N/A   Overcast
2:55 PM 76.6 °F - 68.4 °F 75% 29.79 in 10.0 mi South 17.3 mph 23.0 mph N/A   Overcast
3:15 PM 77.0 °F - 68.9 °F 76% 29.79 in 10.0 mi South 19.6 mph 23.0 mph N/A   Overcast
3:35 PM 76.5 °F - 68.9 °F 77% 29.79 in 10.0 mi South 15.0 mph 21.9 mph N/A   Overcast
3:55 PM 77.0 °F - 68.9 °F 76% 29.79 in 10.0 mi South 15.0 mph 21.9 mph N/A   Overcast
4:15 PM 78.4 °F - 69.6 °F 74% 29.78 in 10.0 mi SSW 13.8 mph 18.4 mph N/A   Overcast
4:35 PM 79.9 °F - 70.0 °F 72% 29.77 in 10.0 mi SSE 13.8 mph 20.7 mph N/A   Mostly Cloudy
4:55 PM 79.0 °F - 69.8 °F 73% 29.77 in 10.0 mi South 13.8 mph 20.7 mph N/A   Mostly Cloudy
5:15 PM 79.5 °F - 69.8 °F 72% 29.77 in 10.0 mi South 13.8 mph - N/A   Scattered Clouds
5:35 PM 79.7 °F - 69.6 °F 71% 29.76 in 10.0 mi SSE 15.0 mph 19.6 mph N/A   Scattered Clouds
5:55 PM 80.6 °F 84.2 °F 70.7 °F 72% 29.75 in 10.0 mi SSE 12.7 mph 18.4 mph N/A   Scattered Clouds
6:15 PM 79.7 °F - 69.8 °F 72% 29.75 in 10.0 mi South 11.5 mph 18.4 mph N/A   Scattered Clouds
6:55 PM 79.3 °F - 69.4 °F 72% 29.75 in 10.0 mi SSE 9.2 mph - N/A   Mostly Cloudy
7:15 PM 78.1 °F - 70.3 °F 77% 29.75 in 10.0 mi SSE 6.9 mph - N/A   Scattered Clouds
7:35 PM 77.4 °F - 70.2 °F 78% 29.75 in 10.0 mi SSE 6.9 mph - N/A   Mostly Cloudy
7:55 PM 76.3 °F - 70.2 °F 81% 29.76 in 10.0 mi SSE 4.6 mph - N/A   Overcast
8:15 PM 75.4 °F - 70.2 °F 84% 29.76 in 10.0 mi SE 3.5 mph - N/A   Overcast
8:35 PM 74.8 °F - 70.3 °F 86% 29.76 in 10.0 mi SE 3.5 mph - N/A   Overcast
8:55 PM 74.7 °F - 70.5 °F 87% 29.77 in 10.0 mi SE 5.8 mph - N/A   Overcast
9:15 PM 73.8 °F - 70.0 °F 88% 29.77 in 10.0 mi ESE 5.8 mph - N/A   Mostly Cloudy
9:35 PM 72.9 °F - 69.8 °F 90% 29.78 in 10.0 mi ESE 4.6 mph - N/A   Scattered Clouds
9:55 PM 72.3 °F - 69.8 °F 92% 29.79 in 10.0 mi East 6.9 mph - N/A   Clear
10:15 PM 71.4 °F - 69.4 °F 93% 29.80 in 7.0 mi East 4.6 mph - N/A   Scattered Clouds
10:35 PM 71.6 °F - 69.6 °F 93% 29.80 in 7.0 mi East 4.6 mph - N/A   Mostly Cloudy
10:55 PM 71.6 °F - 69.8 °F 94% 29.81 in 7.0 mi East 4.6 mph - N/A   Overcast
11:15 PM 72.0 °F - 70.0 °F 93% 29.81 in 7.0 mi East 5.8 mph - N/A   Overcast
11:55 PM 71.8 °F - 69.8 °F 93% 29.81 in 7.0 mi East 5.8 mph - N/A   Overcast